Location: Boiro
(42.6475°N, 8.8834°W)
Time: 02:07:36
(UTC+02:00)

UKube-1 - Pass Details

Date: 29 April 2024
Orbit: 583 x 591 km, 98.3° (Epoch: 23 May)

Event Time Altitude Azimuth Distance (km) Brightness Sun altitude
Rises 04:41:10 0° 358° (N) 2,833 ? -25.6°
Reaches altitude 10° 04:43:49 10° 341° (NNW) 1,925 ? -25.3°
Enters shadow 04:45:56 18° 311° (NW) 1,460 ? -25.1°
